Weather History for New Bedford, MA

Change the Weather History Date:

Saturday, December 8, 2012

  Actual Average Record
Temperature  
Mean Temperature 46 °F -  
Max Temperature 51 °F 43 °F 63 °F (1951)
Min Temperature 42 °F 30 °F 9 °F (2008)
Degree Days  
Heating Degree Days 18    
Moisture  
Dew Point 46 °F    
Average Humidity 94    
Maximum Humidity 100    
Minimum Humidity 88    
Precipitation  
Precipitation 0.33 in - - ()
Sea Level Pressure  
Sea Level Pressure 29.94 in    
Wind  
Wind Speed 2 mph (NW)    
Max Wind Speed 7 mph    
Max Gust Speed -    
Visibility 3 miles    
Events Fog , Rain    
Averages and records for this station are not official NWS values.
T = Trace of Precipitation, MM = Missing Value Source: NWS Daily Summary

Daily Weather History Graph

Daily Weather History Graph

Search for Another Location

Airport:

Trip Planner

Search our weather history database for the weather conditions in past years. The results will help you decide how hot, cold, wet, or windy it might be!

Date:

Astronomy

Dec. 08, 2012 Rise Set
Actual Time 6:58 AM EST 4:13 PM EST
Civil Twilight 6:27 AM EST 4:44 PM EST
Nautical Twilight 5:52 AM EST 5:19 PM EST
Astronomical Twilight 5:18 AM EST 5:53 PM EST
Moon 1:16 AM EST (12/8) 12:44 PM EST (12/8)
Length of Visible Light 10h 17m
Length of Day
9h 14m
Waning Crescent, 28% of the Moon is Illuminated
Dec 8
Waning Crescent
Dec 13
New
Dec 20
First Quarter
Dec 28
Full
Jan 4
Last Quarter

Hourly Weather History & Observations

Time (EST) Temp. Windchill Dew Point Humidity Pressure Visibility Wind Dir Wind Speed Gust Speed Precip Events Conditions
12:22 AM 44.6 °F - 44.6 °F 100% 30.04 in 4.0 mi Calm Calm - 0.00 in Rain Light Rain
12:38 AM 44.6 °F - 44.6 °F 100% 30.04 in 4.0 mi Calm Calm - 0.00 in Rain Light Rain
12:53 AM 45.0 °F 43.5 °F 44.1 °F 97% 30.04 in 5.0 mi South 3.5 mph - 0.00 in   Overcast
1:16 AM 46.4 °F - 44.6 °F 93% 30.04 in 6.0 mi Calm Calm - 0.00 in   Overcast
1:44 AM 46.4 °F 45.2 °F 44.6 °F 93% 30.03 in 7.0 mi South 3.5 mph - 0.00 in Rain Light Rain
1:53 AM 46.0 °F - 44.1 °F 93% 30.03 in 7.0 mi Calm Calm - 0.00 in Rain Light Rain
2:37 AM 46.4 °F - 44.6 °F 93% 30.02 in 2.5 mi Calm Calm - 0.02 in Rain Light Rain
2:46 AM 46.4 °F - 44.6 °F 93% 30.02 in 3.0 mi Calm Calm - 0.02 in Rain Light Rain
2:53 AM 46.0 °F - 45.0 °F 96% 30.02 in 3.0 mi Calm Calm - 0.02 in Rain Light Rain
3:07 AM 46.4 °F - 44.6 °F 93% 30.01 in 2.5 mi Calm Calm - 0.01 in Rain Light Rain
3:40 AM 46.4 °F - 44.6 °F 93% 30.01 in 2.5 mi Calm Calm - 0.06 in Rain Rain
3:53 AM 46.0 °F - 45.0 °F 96% 30.01 in 2.5 mi Calm Calm - 0.07 in Rain Light Rain
4:01 AM 46.4 °F - 44.6 °F 93% 30.01 in 1.8 mi Calm Calm - 0.02 in Rain Rain
4:41 AM 46.4 °F - 44.6 °F 93% 30.00 in 2.0 mi Calm Calm - 0.06 in Rain Light Rain
4:53 AM 46.0 °F - 45.0 °F 96% 30.00 in 1.8 mi Calm Calm - 0.07 in Rain Light Rain
5:10 AM 46.4 °F - 44.6 °F 93% 30.00 in 1.5 mi Calm Calm - 0.02 in Rain Light Rain
5:29 AM 46.4 °F 44.3 °F 44.6 °F 93% 29.98 in 2.0 mi ESE 4.6 mph - 0.05 in Rain Rain
5:38 AM 46.4 °F 43.5 °F 44.6 °F 93% 29.98 in 3.0 mi East 5.8 mph - 0.07 in Rain Rain
5:48 AM 46.4 °F 44.3 °F 44.6 °F 93% 29.98 in 4.0 mi East 4.6 mph - 0.08 in Rain Rain
5:53 AM 46.4 °F 44.3 °F 46.4 °F 100% 29.98 in 4.0 mi East 4.6 mph - N/A Rain Rain
6:04 AM 46.4 °F 45.2 °F 46.4 °F 100% 29.98 in 5.0 mi East 3.5 mph - 0.01 in Rain Light Rain
6:11 AM 46.4 °F 45.2 °F 46.4 °F 100% 29.98 in 5.0 mi East 3.5 mph - 0.02 in Rain Light Rain
6:53 AM 46.9 °F - 46.0 °F 97% 29.96 in 4.0 mi East 3.5 mph - 0.08 in Rain Rain
7:53 AM 48.0 °F - 46.9 °F 96% 29.94 in 6.0 mi Calm Calm - 0.01 in   Overcast
8:53 AM 48.9 °F - 48.0 °F 97% 29.92 in 2.0 mi ENE 5.8 mph - 0.00 in Rain Light Rain
9:53 AM 48.9 °F - 48.0 °F 97% 29.90 in 1.0 mi NE 3.5 mph - 0.05 in Rain Light Rain
10:21 AM 50.0 °F - 48.2 °F 94% 29.89 in 2.5 mi WNW 4.6 mph - 0.01 in   Overcast
10:37 AM 50.0 °F - 48.2 °F 94% 29.88 in 1.2 mi Calm Calm - 0.02 in Rain Light Rain
10:53 AM 50.0 °F - 48.9 °F 96% 29.87 in 2.5 mi North 4.6 mph - 0.02 in Rain Light Rain
11:04 AM 50.0 °F - 48.2 °F 94% 29.87 in 3.0 mi Calm Calm - 0.00 in   Overcast
11:14 AM 50.0 °F - 48.2 °F 94% 29.87 in 2.5 mi NNW 3.5 mph - 0.00 in   Overcast
11:53 AM 51.1 °F - 48.9 °F 92% 29.85 in 4.0 mi North 5.8 mph - 0.01 in   Overcast
12:53 PM 51.1 °F - 48.9 °F 92% 29.83 in 2.5 mi Calm Calm - N/A   Overcast
1:01 PM 51.8 °F - 50.0 °F 94% 29.83 in 4.0 mi NW 3.5 mph - N/A   Overcast
1:16 PM 51.8 °F - 48.2 °F 88% 29.83 in 2.0 mi Variable 3.5 mph - N/A   Overcast
1:24 PM 51.8 °F - 48.2 °F 88% 29.83 in 1.5 mi NNW 3.5 mph - N/A   Overcast
1:31 PM 51.8 °F - 48.2 °F 88% 29.83 in 3.0 mi NW 4.6 mph - N/A   Overcast
1:43 PM 51.8 °F - 48.2 °F 88% 29.84 in 2.0 mi Variable 3.5 mph - N/A   Overcast
1:51 PM 51.8 °F - 48.2 °F 88% 29.84 in 1.5 mi Variable 3.5 mph - N/A   Overcast
1:53 PM 51.1 °F - 48.9 °F 92% 29.84 in 1.2 mi NNW 3.5 mph - N/A   Overcast
2:25 PM 51.8 °F - 48.2 °F 88% 29.84 in 3.0 mi North 3.5 mph - N/A   Overcast
2:53 PM 50.0 °F - 48.9 °F 96% 29.85 in 4.0 mi North 3.5 mph - N/A   Overcast
3:53 PM 48.9 °F - 46.9 °F 93% 29.87 in 2.0 mi Calm Calm - N/A   Overcast
4:53 PM 48.0 °F - 46.9 °F 96% 29.88 in 2.0 mi Calm Calm - N/A   Overcast
5:53 PM 48.0 °F - 46.9 °F 96% 29.89 in 2.0 mi Calm Calm - N/A   Overcast
6:53 PM 48.0 °F - 46.0 °F 93% 29.91 in 3.0 mi Calm Calm - N/A   Overcast
7:21 PM 48.2 °F - 46.4 °F 93% 29.91 in 2.0 mi Calm Calm - N/A   Overcast
7:46 PM 48.2 °F - 46.4 °F 93% 29.92 in 2.0 mi WSW 3.5 mph - N/A   Overcast
7:53 PM 48.0 °F - 46.9 °F 96% 29.92 in 3.0 mi WSW 4.6 mph - N/A   Overcast
8:22 PM 48.2 °F - 46.4 °F 93% 29.92 in 6.0 mi West 6.9 mph - N/A   Overcast
8:49 PM 48.2 °F - 46.4 °F 93% 29.93 in 5.0 mi WSW 5.8 mph - N/A   Overcast
8:53 PM 48.9 °F - 46.9 °F 93% 29.93 in 5.0 mi WSW 3.5 mph - N/A   Overcast
9:43 PM 46.4 °F - 44.6 °F 93% 29.93 in 4.0 mi Calm Calm - N/A   Scattered Clouds
9:53 PM 46.0 °F - 44.1 °F 93% 29.93 in 1.8 mi Calm Calm - N/A   Partly Cloudy
10:06 PM 46.4 °F - 44.6 °F 93% 29.94 in 3.0 mi Calm Calm - N/A   Clear
10:36 PM 44.6 °F - 42.8 °F 93% 29.95 in 1.2 mi Calm Calm - N/A   Clear
10:44 PM 44.6 °F - 42.8 °F 93% 29.96 in 0.5 mi Calm Calm - N/A Fog Fog
10:46 PM 42.8 °F - 42.8 °F 100% 29.95 in 0.2 mi Calm Calm - N/A Fog Fog
10:53 PM 43.0 °F 41.3 °F 42.1 °F 97% 29.96 in 0.2 mi SSW 3.5 mph - N/A Fog Fog
11:14 PM 46.4 °F 43.5 °F 44.6 °F 93% 29.96 in 2.5 mi WSW 5.8 mph - N/A   Mostly Cloudy
11:21 PM 46.4 °F 43.5 °F 44.6 °F 93% 29.96 in 4.0 mi WSW 5.8 mph - N/A   Overcast
11:53 PM 46.9 °F - 46.0 °F 97% 29.96 in 4.0 mi WSW 6.9 mph - N/A   Overcast